Weather History for Doha, Qatar

Change the Weather History Date:

Tuesday, September 2, 2014

  Actual Average Record
Temperature  
Mean Temperature 98 °F -  
Max Temperature 107 °F 101 °F 108 °F (2012)
Min Temperature 89 °F 80 °F 80 °F (1997)
Cooling Degree Days 33    
Growing Degree Days 48 (Base 50)    
Moisture  
Dew Point 75 °F    
Average Humidity 54    
Maximum Humidity 79    
Minimum Humidity 14    
Precipitation  
Precipitation 0.00 in 0.00 in - ()
Sea Level Pressure  
Sea Level Pressure 29.55 in    
Wind  
Wind Speed 5 mph ()    
Max Wind Speed 13 mph    
Max Gust Speed -    
Visibility 5.7 miles    
Events      
Averages and records for this station are not official NWS values.
T = Trace of Precipitation, MM = Missing Value Source: Averaged Metar Reports

Daily Weather History Graph

Daily Weather History Graph

Search for Another Location

Airport:

Trip Planner

Search our weather history database for the weather conditions in past years. The results will help you decide how hot, cold, wet, or windy it might be!

Date:

Astronomy

Sep. 02, 2014 Rise Set
Actual Time 5:14 AM AST 5:51 PM AST
Civil Twilight 4:51 AM AST 6:15 PM AST
Nautical Twilight 4:24 AM AST 6:42 PM AST
Astronomical Twilight 3:56 AM AST 7:10 PM AST
Moon 11:54 AM AST (9/2) 11:06 PM AST (9/2)
Length of Visible Light 13h 23m
Length of Day
12h 37m
Waxing Crescent, 49% of the Moon is Illuminated
Sep 2
Waxing Crescent
Sep 2
First Quarter
Sep 9
Full
Sep 16
Last Quarter
Sep 24
New

Hourly Weather History & Observations

Time (AST) Temp. Heat Index Dew Point Humidity Pressure Visibility Wind Dir Wind Speed Gust Speed Precip Events Conditions
12:00 AM 92 °F - 83 °F 69% 29.52 in 7 mi NE 2.3 mph - -  
12:00 AM 91.4 °F 114.3 °F 82.4 °F 75% 29.50 in - NE 2.3 mph - N/A   Clear
1:00 AM 91.4 °F 114.3 °F 82.4 °F 75% 29.50 in - NNE 3.5 mph - N/A   Clear
3:00 AM 91 °F - 83 °F 71% 29.51 in 6 mi East 3.5 mph - -  
3:00 AM 91.4 °F 114.3 °F 82.4 °F 75% 29.50 in - East 3.5 mph - N/A   Clear
4:00 AM 91.4 °F 114.3 °F 82.4 °F 75% 29.50 in - ENE 3.5 mph - N/A   Clear
5:00 AM 89.6 °F 111.1 °F 82.4 °F 79% 29.53 in - Variable 2.3 mph - N/A   Clear
5:30 AM 89.6 °F 108.2 °F 80.6 °F 75% 29.53 in 5.6 mi ESE 3.5 mph - N/A   Unknown
6:00 AM 91 °F - 81 °F 65% 29.55 in 6 mi 2.3 mph - -   Haze
6:00 AM 91.4 °F 111.0 °F 80.6 °F 71% 29.53 in 5.6 mi Variable 2.3 mph - N/A   Unknown
7:30 AM 93.2 °F 113.6 °F 80.6 °F 67% 29.56 in - SSW 4.6 mph - N/A   Clear
8:30 AM 96.8 °F 114.8 °F 78.8 °F 56% 29.56 in - SW 3.5 mph - N/A   Clear
9:00 AM 99 °F - 73 °F 34% 29.59 in 6 mi 2.3 mph - -   Widespread Dust
9:00 AM 98.6 °F 109.2 °F 73.4 °F 44% 29.56 in 5.6 mi Variable 2.3 mph - N/A   Unknown
9:30 AM 102.2 °F 116.3 °F 75.2 °F 42% 29.56 in 5.0 mi Variable 2.3 mph - N/A   Unknown
10:00 AM 100.4 °F 116.5 °F 77.0 °F 47% 29.56 in 5.0 mi ENE 8.1 mph - N/A   Unknown
10:30 AM 102.2 °F 111.7 °F 71.6 °F 37% 29.56 in 5.0 mi North 6.9 mph - N/A   Unknown
11:00 AM 102.2 °F 110.0 °F 69.8 °F 35% 29.56 in 5.0 mi North 8.1 mph - N/A   Unknown
11:30 AM 104.0 °F 112.2 °F 69.8 °F 33% 29.56 in 5.0 mi North 9.2 mph - N/A   Unknown
12:00 PM 105 °F - 59 °F 14% 29.56 in 5 mi North 11.5 mph - -   Widespread Dust
12:00 PM 105.8 °F 106.8 °F 59.0 °F 22% 29.53 in 5.0 mi North 11.5 mph - N/A   Unknown
12:30 PM 105.8 °F - 50.0 °F 15% 29.53 in 5.0 mi NNE 11.5 mph - N/A   Unknown
1:00 PM 105.8 °F - 51.8 °F 17% 29.53 in - NNE 11.5 mph - N/A   Clear
1:30 PM 105.8 °F 104.9 °F 55.4 °F 19% 29.53 in - ENE 11.5 mph - N/A   Clear
2:00 PM 104.0 °F 104.6 °F 59.0 °F 23% 29.53 in - East 12.7 mph - N/A   Clear
3:00 PM 101 °F - 69 °F 27%  in 9 mi ENE 11.5 mph - -  
3:00 PM 102.2 °F 110.0 °F 69.8 °F 35% 29.53 in - ENE 11.5 mph - N/A   Clear
4:00 PM 98.6 °F 111.7 °F 75.2 °F 47% 29.53 in - ENE 11.5 mph - N/A   Clear
5:00 PM 96.8 °F 112.2 °F 77.0 °F 53% 29.53 in - ENE 11.5 mph - N/A   Clear
6:00 PM 94 °F - 78 °F 52% 29.56 in 6 mi NE 9.2 mph - -   Haze
6:00 PM 95.0 °F 112.2 °F 78.8 °F 59% 29.53 in 5.6 mi NE 9.2 mph - N/A   Unknown
7:00 PM 93.2 °F 110.2 °F 78.8 °F 63% 29.56 in - NE 6.9 mph - N/A   Clear
8:00 PM 93.2 °F 113.6 °F 80.6 °F 67% 29.56 in - NNE 5.8 mph - N/A   Clear
9:00 PM 92 °F - 81 °F 64% 29.60 in 6 mi NNE 4.6 mph - -  
9:00 PM 91.4 °F 111.0 °F 80.6 °F 71% 29.59 in - NNE 4.6 mph - N/A   Clear
9:30 PM 91.4 °F 111.0 °F 80.6 °F 71% 29.59 in - NNE 4.6 mph - N/A   Clear
10:00 PM 91.4 °F 111.0 °F 80.6 °F 71% 29.59 in - ENE 3.5 mph - N/A   Clear
10:30 PM 91.4 °F 114.3 °F 82.4 °F 75% 29.59 in - NNE 3.5 mph - N/A   Clear
11:00 PM 89.6 °F 108.2 °F 80.6 °F 75% 29.59 in - Variable 2.3 mph - N/A   Clear
11:30 PM 89.6 °F 111.1 °F 82.4 °F 79% 29.56 in - Variable 1.2 mph - N/A   Clear